Staples, MN

5:29 AM CDT on March 29, 2017 (GMT -0500)
Staples Municipal

Weather History for KSAZ - October, 2013

Change the Weather History Date:

Saturday, October 19, 2013

  Actual Average Record
Temperature  
Mean Temperature 32 °F -  
Max Temperature 39 °F 51 °F 84 °F (2000)
Min Temperature 26 °F 33 °F 26 °F (2011)
Degree Days  
Heating Degree Days 32    
Moisture  
Dew Point 32 °F    
Average Humidity 93    
Maximum Humidity 100    
Minimum Humidity 70    
Precipitation  
Precipitation 0.02 in - - ()
Sea Level Pressure  
Sea Level Pressure 29.72 in    
Wind  
Wind Speed 4 mph (West)    
Max Wind Speed 10 mph    
Max Gust Speed 16 mph    
Visibility 10 miles    
Events Rain    
Averages and records for this station are not official NWS values.
T = Trace of Precipitation, MM = Missing Value Source: NWS Daily Summary

Daily Weather History Graph

Daily Weather History Graph

Search for Another Location

Airport or City:

Trip Planner

Search our weather history database for the weather conditions in past years. The results will help you decide how hot, cold, wet, or windy it might be!

Date:

Astronomy

Oct. 19, 2013 Rise Set
Actual Time 7:42 AM CDT 6:25 PM CDT
Civil Twilight 7:11 AM CDT 6:55 PM CDT
Nautical Twilight 6:36 AM CDT 7:30 PM CDT
Astronomical Twilight 6:02 AM CDT 8:05 PM CDT
Moon 6:49 PM CDT (10/19) 8:24 AM CDT (10/19)
Length of Visible Light 11h 43m
Length of Day
10h 42m
Waxing Gibbous, 99% of the Moon is Illuminated
Oct 19
Waxing Gibbous
Oct 26
Last Quarter
Nov 3
New
Nov 9
First Quarter
Nov 17
Full

Hourly Weather History & Observations

Time (CDT) Temp. Windchill Dew Point Humidity Pressure Visibility Wind Dir Wind Speed Gust Speed Precip Events Conditions
12:13 AM 33.8 °F 30.8 °F 32.0 °F 93% 29.77 in 10.0 mi South 3.5 mph - N/A   Mostly Cloudy
12:33 AM 33.8 °F 30.8 °F 32.0 °F 93% 29.76 in 10.0 mi South 3.5 mph - N/A   Mostly Cloudy
12:54 AM 33.8 °F 29.6 °F 33.8 °F 100% 29.75 in 10.0 mi SSW 4.6 mph - N/A   Overcast
1:13 AM 33.8 °F 29.6 °F 33.8 °F 100% 29.74 in 10.0 mi SW 4.6 mph - N/A   Mostly Cloudy
1:33 AM 33.8 °F 29.6 °F 33.8 °F 100% 29.74 in 10.0 mi SW 4.6 mph - N/A   Mostly Cloudy
1:54 AM 33.8 °F 29.6 °F 33.8 °F 100% 29.73 in 10.0 mi SSW 4.6 mph - N/A   Scattered Clouds
2:13 AM 33.8 °F 29.6 °F 33.8 °F 100% 29.73 in 10.0 mi SSW 4.6 mph - N/A   Mostly Cloudy
2:33 AM 35.6 °F 32.8 °F 33.8 °F 93% 29.72 in 10.0 mi SW 3.5 mph - N/A   Overcast
2:53 AM 35.6 °F 31.7 °F 33.8 °F 93% 29.72 in 10.0 mi SW 4.6 mph - N/A   Overcast
3:14 AM 35.6 °F 32.8 °F 33.8 °F 93% 29.71 in 10.0 mi SSW 3.5 mph - N/A   Overcast
3:33 AM 35.6 °F - 33.8 °F 93% 29.70 in 10.0 mi Calm Calm - N/A   Overcast
3:53 AM 35.6 °F 32.8 °F 33.8 °F 93% 29.70 in 10.0 mi SW 3.5 mph - N/A   Overcast
4:14 AM 35.6 °F - 33.8 °F 93% 29.69 in 10.0 mi Calm Calm - N/A   Light Drizzle
4:33 AM 35.6 °F 29.9 °F 33.8 °F 93% 29.68 in 10.0 mi SW 6.9 mph - N/A   Overcast
4:53 AM 35.6 °F 31.7 °F 33.8 °F 93% 29.68 in 10.0 mi WSW 4.6 mph - N/A   Overcast
5:13 AM 33.8 °F 29.6 °F 33.8 °F 100% 29.68 in 10.0 mi WSW 4.6 mph - N/A   Overcast
5:34 AM 33.8 °F 30.8 °F 33.8 °F 100% 29.68 in 10.0 mi WSW 3.5 mph - N/A   Overcast
5:53 AM 33.8 °F - 33.8 °F 100% 29.68 in 10.0 mi Calm Calm - N/A   Overcast
6:13 AM 33.8 °F 29.6 °F 32.0 °F 93% 29.68 in 10.0 mi SW 4.6 mph - N/A   Overcast
6:34 AM 33.8 °F - 33.8 °F 100% 29.68 in 10.0 mi Calm Calm - N/A   Overcast
6:53 AM 33.8 °F - 33.8 °F 100% 29.68 in 10.0 mi Calm Calm - N/A   Overcast
7:13 AM 33.8 °F - 33.8 °F 100% 29.67 in 10.0 mi Calm Calm - N/A   Overcast
7:34 AM 33.8 °F - 32.0 °F 93% 29.67 in 10.0 mi Calm Calm - N/A   Overcast
7:53 AM 33.8 °F 29.6 °F 33.8 °F 100% 29.68 in 10.0 mi WNW 4.6 mph - N/A   Overcast
8:13 AM 33.8 °F 30.8 °F 33.8 °F 100% 29.68 in 10.0 mi West 3.5 mph - N/A   Overcast
9:13 AM 33.8 °F 28.6 °F 33.8 °F 100% 29.69 in 10.0 mi WNW 5.8 mph - N/A   Overcast
9:34 AM 33.8 °F 28.6 °F 33.8 °F 100% 29.69 in 10.0 mi West 5.8 mph - N/A   Overcast
9:53 AM 35.6 °F 30.7 °F 33.8 °F 93% 29.70 in 10.0 mi WNW 5.8 mph - N/A   Overcast
10:13 AM 35.6 °F - 35.6 °F 100% 29.69 in 10.0 mi Calm Calm - N/A   Overcast
10:33 AM 37.4 °F - 35.6 °F 93% 29.69 in 10.0 mi Calm Calm - N/A   Overcast
10:53 AM 37.4 °F 33.8 °F 33.8 °F 87% 29.69 in 10.0 mi NW 4.6 mph - N/A   Overcast
11:13 AM 37.4 °F - 33.8 °F 87% 29.69 in 10.0 mi Calm Calm - N/A   Overcast
11:33 AM 39.2 °F 35.9 °F 32.0 °F 75% 29.69 in 10.0 mi North 4.6 mph - N/A   Overcast
11:53 AM 39.2 °F 37.0 °F 33.8 °F 81% 29.69 in 10.0 mi NW 3.5 mph - N/A   Overcast
12:13 PM 39.2 °F 35.0 °F 30.2 °F 70% 29.70 in 10.0 mi NNW 5.8 mph - N/A   Overcast
12:33 PM 39.2 °F 33.6 °F 33.8 °F 81% 29.70 in 10.0 mi WNW 8.1 mph - N/A   Overcast
12:53 PM 37.4 °F 30.3 °F 33.8 °F 87% 29.71 in 10.0 mi WNW 10.4 mph - N/A   Drizzle
1:13 PM 37.4 °F 32.1 °F 35.6 °F 93% 29.71 in 10.0 mi WSW 6.9 mph - N/A   Overcast
1:34 PM 37.4 °F 31.4 °F 35.6 °F 93% 29.71 in 7.0 mi WNW 8.1 mph - N/A Rain Rain
1:53 PM 37.4 °F 31.4 °F 35.6 °F 93% 29.71 in 10.0 mi West 8.1 mph - 0.02 in Rain Light Rain
2:13 PM 37.4 °F 31.4 °F 35.6 °F 93% 29.71 in 10.0 mi West 8.1 mph - N/A   Overcast
2:33 PM 37.4 °F 30.3 °F 35.6 °F 93% 29.72 in 10.0 mi WNW 10.4 mph - N/A   Overcast
2:53 PM 37.4 °F 30.3 °F 35.6 °F 93% 29.72 in 10.0 mi WNW 10.4 mph - N/A   Drizzle
3:13 PM 37.4 °F 30.3 °F 33.8 °F 87% 29.73 in 10.0 mi WNW 10.4 mph - N/A   Overcast
3:33 PM 37.4 °F 30.3 °F 33.8 °F 87% 29.74 in 10.0 mi WNW 10.4 mph 16.1 mph N/A   Overcast
3:53 PM 37.4 °F 30.8 °F 33.8 °F 87% 29.74 in 10.0 mi WNW 9.2 mph 16.1 mph N/A   Overcast
4:13 PM 37.4 °F 30.3 °F 33.8 °F 87% 29.74 in 10.0 mi WNW 10.4 mph - N/A   Overcast
4:33 PM 37.4 °F 30.3 °F 33.8 °F 87% 29.74 in 10.0 mi WNW 10.4 mph - N/A   Overcast
4:53 PM 37.4 °F 30.3 °F 32.0 °F 81% 29.75 in 10.0 mi WNW 10.4 mph - N/A   Overcast
5:13 PM 37.4 °F 30.8 °F 32.0 °F 81% 29.75 in 10.0 mi West 9.2 mph - N/A   Overcast
5:33 PM 37.4 °F 30.3 °F 30.2 °F 75% 29.75 in 10.0 mi WNW 10.4 mph - N/A   Overcast
5:53 PM 37.4 °F 31.4 °F 30.2 °F 75% 29.76 in 10.0 mi WNW 8.1 mph - N/A   Scattered Clouds
6:13 PM 35.6 °F 31.7 °F 30.2 °F 81% 29.76 in 10.0 mi WNW 4.6 mph - N/A   Scattered Clouds
6:34 PM 33.8 °F 29.6 °F 30.2 °F 87% 29.77 in 10.0 mi WNW 4.6 mph - N/A   Clear
6:53 PM 33.8 °F 30.8 °F 30.2 °F 87% 29.77 in 10.0 mi NNW 3.5 mph - N/A   Clear
7:13 PM 33.8 °F 30.8 °F 30.2 °F 87% 29.77 in 10.0 mi NW 3.5 mph - N/A   Clear
7:34 PM 30.2 °F - 28.4 °F 93% 29.77 in 10.0 mi Calm Calm - N/A   Clear
7:53 PM 30.2 °F - 28.4 °F 93% 29.77 in 10.0 mi Calm Calm - N/A   Clear
8:14 PM 30.2 °F - 28.4 °F 93% 29.77 in 10.0 mi Calm Calm - N/A   Clear
8:33 PM 28.4 °F - 28.4 °F 100% 29.77 in 10.0 mi Calm Calm - N/A   Clear
8:53 PM 28.4 °F - 28.4 °F 100% 29.77 in 10.0 mi Calm Calm - N/A   Clear
9:14 PM 28.4 °F - 28.4 °F 100% 29.77 in 10.0 mi Calm Calm - N/A   Clear
9:33 PM 28.4 °F - 26.6 °F 93% 29.77 in 10.0 mi Calm Calm - N/A   Clear
9:53 PM 28.4 °F - 28.4 °F 100% 29.77 in 10.0 mi Calm Calm - N/A   Clear
10:14 PM 28.4 °F - 28.4 °F 100% 29.77 in 10.0 mi Calm Calm - N/A   Clear
10:33 PM 30.2 °F - 28.4 °F 93% 29.77 in 10.0 mi Calm Calm - N/A   Clear
10:53 PM 28.4 °F - 28.4 °F 100% 29.76 in 10.0 mi Calm Calm - N/A   Clear
11:14 PM 28.4 °F - 28.4 °F 100% 29.76 in 10.0 mi Calm Calm - N/A   Clear
11:33 PM 26.6 °F - 26.6 °F 100% 29.76 in 10.0 mi Calm Calm - N/A   Clear
11:53 PM 28.4 °F 24.6 °F 28.4 °F 100% 29.75 in 10.0 mi South 3.5 mph - N/A   Scattered Clouds